Station 44056 - Duck FRF, NC Image indicating link to RSS feed of recent meteorological observations for station 44056


Conditions at 44056 as of
(3:26 pm EDT)
1926 GMT on 05/30/2024:
     

Click on the graph icon in the table below to see a time series plot of the last five days of that observation.

5-day plot - Wave Height Wave Height (WVHT): 3.0 ft
5-day plot - Dominant Wave Period Dominant Wave Period (DPD): 5 sec
5-day plot - Average Wave Period Average Period (APD): 4.3 sec
5-day plot - Mean Wave Direction Mean Wave Direction (MWD): N ( 0 deg true )
5-day plot - Water Temperature Water Temperature (WTMP): 69.8 °F
Previous observations
TIME
(EDT)
5-day plot - Wind Direction
WDIR
 
5-day plot - Wind Speed
WSPD
kts
5-day plot - Wind Gust
GST
kts
5-day plot - Wave Height
WVHT
ft
5-day plot - Dominant Wave Period
DPD
sec
5-day plot - Average Wave Period
APD
sec
5-day plot - Mean Wave Direction
MWD
 
5-day plot - Atmospheric Pressure
PRES
in
5-day plot - Pressure Tendency
PTDY
in
5-day plot - Air Temperature
ATMP
°F
5-day plot - Water Temperature
WTMP
°F
5-day plot - Dew Point
DEWP
°F
5-day plot - Salinity
SAL
psu
5-day plot - Visibility
VIS
nmi
5-day plot - Tide (above MLLW)
TIDE
ft
2024-05-30 02:56 pm--- 3.3 54.2 N--- 69.3----
2024-05-30 02:26 pm--- 3.6 54.2 N--- 67.5----
2024-05-30 01:56 pm--- 3.3 54.1 N--- 67.3----
2024-05-30 01:26 pm--- 3.3 54.0 N--- 67.5----
2024-05-30 12:56 pm--- 3.6 54.0 N--- 67.5----
2024-05-30 12:26 pm--- 3.6 54.0 N--- 67.1----
2024-05-30 11:56 am--- 3.3 53.9 N--- 67.1----
2024-05-30 11:26 am--- 3.0 53.8 N--- 67.1----
2024-05-30 10:56 am--- 2.6 53.9 N--- 67.6----
2024-05-30 10:26 am--- 2.3 83.6 E--- 67.8----
2024-05-30 09:56 am--- 2.3 43.5 N--- 68.2----
2024-05-30 09:26 am--- 2.3 93.4 E--- 68.4----
2024-05-30 08:56 am--- 2.3 93.3 E--- 68.4----
2024-05-30 08:26 am--- 2.0 93.9 E--- 68.7----
2024-05-30 07:56 am--- 1.6 44.3 N--- 69.4----
2024-05-30 07:26 am--- 2.0 94.5 E--- 68.9----
2024-05-30 06:56 am--- 2.0 44.6NNE--- 68.7----
2024-05-30 06:26 am--- 2.3 44.5 N--- 68.9----
2024-05-30 05:56 am--- 2.3 54.3 N--- 68.5----
2024-05-30 05:26 am--- 2.6 54.3 N--- 67.5----
2024-05-30 04:56 am--- 3.0 44.2 N--- 67.6----
2024-05-30 04:26 am--- 3.0 54.1 N--- 67.1----
2024-05-30 03:56 am--- 3.0 44.0NNW--- 66.9----
2024-05-30 03:26 am--- 3.0 43.9 N--- 67.3----
2024-05-30 02:56 am--- 2.6 43.9 N--- 67.5----
2024-05-30 02:26 am--- 3.0 43.8 N--- 67.8----
2024-05-30 01:56 am--- 2.6 43.7 N--- 68.0----
2024-05-30 01:26 am--- 2.6 33.4 N--- 68.5----
2024-05-30 12:56 am--- 2.6 33.3 N--- 69.4----
2024-05-30 12:26 am--- 2.3 103.2 E--- 70.7----
2024-05-29 11:56 pm--- 1.6 85.2ESE--- 71.4----
2024-05-29 11:26 pm--- 1.6 74.9ESE--- 71.4----
2024-05-29 10:56 pm--- 1.6 74.8ESE--- 71.6----
2024-05-29 10:26 pm--- 1.6 84.6ESE--- 71.8----
2024-05-29 09:56 pm--- 1.6 104.3 E--- 72.0----
2024-05-29 09:26 pm--- 1.6 84.6ESE--- 72.0----
2024-05-29 08:56 pm--- 1.6 84.5ESE--- 72.1----
2024-05-29 08:26 pm--- 1.6 74.8ESE--- 71.8----
2024-05-29 07:56 pm--- 1.6 84.7ESE--- 69.4----
2024-05-29 07:26 pm--- 1.6 64.7ESE--- 66.7----
2024-05-29 06:56 pm--- 1.6 74.4ESE--- 67.3----
2024-05-29 06:26 pm--- 1.6 94.5ESE--- 67.3----
2024-05-29 05:56 pm--- 1.6 114.7 E--- 67.6----
2024-05-29 05:26 pm--- 1.3 84.4ESE--- 68.2----
2024-05-29 04:56 pm--- 1.6 114.7 E--- 68.2----
2024-05-29 04:26 pm--- 1.6 124.9ENE--- 68.7----
2024-05-29 03:56 pm--- 1.6 134.8 E--- 69.3----
2024-05-29 03:26 pm--- 1.6 84.8ESE--- 69.8----
2024-05-29 02:56 pm--- 1.6 84.9 E--- 69.8----

Detailed Wave Summary
for 44056 as of (3:26 pm EDT)
1926 GMT on 05/30/2024:

These wave data are displayed in rounded times.

     

Click on the graph icon in the table below to see a time series plot of the last five days of that observation.

5-day plot - Significant Wave Height Significant Wave Height (WVHT): 3.0 ft
5-day plot - Swell Height Swell Height (SwH): 0.3 ft
5-day plot - Swell Period Swell Period (SwP): 10.5 sec
5-day plot - Swell Direction Swell Direction (SwD): E
5-day plot - Wind Wave Height Wind Wave Height (WWH): 3.0 ft
5-day plot - Wind Wave Period Wind Wave Period (WWP): 5.0 sec
5-day plot - Wave Steepness Wave Steepness (STEEPNESS):VERY_STEEP
5-day plot - Average Wave Period Average Wave Period (APD): 4.3 sec
Previous observations
TIME
(EDT)
5-day plot - Wave Height
WVHT
ft
5-day plot - Swell Height
SwH
ft
5-day plot - Swell Period
SwP
sec
5-day plot - Swell Direction
SwD
 
5-day plot - Wind Wave Height
WWH
ft
5-day plot - Wind Wave Period
WWP
sec
5-day plot - Wind Wave Direction
WWD
 
5-day plot - Wave Steepness
STEEPNESS
 
5-day plot - Average Wave Period
APD
sec
2024-05-30 02:56 pm 3.3 0.7 10.5 NE 3.3 5.0 NVERY_STEEP 4.2
2024-05-30 02:26 pm 3.6 0.7 11.8 E 3.6 4.8 NVERY_STEEP 4.2
2024-05-30 01:56 pm 3.3 0.7 11.1ENE 3.3 5.0 NVERY_STEEP 4.1
2024-05-30 01:26 pm 3.3 0.7 10.5ENE 3.3 4.8 NVERY_STEEP 4.0
2024-05-30 12:56 pm 3.6 0.3 11.1 E 3.6 5.0-VERY_STEEP 4.0
2024-05-30 12:26 pm 3.6 0.7 11.1 E 3.6 5.0 NVERY_STEEP 4.0
2024-05-30 11:56 am 3.3 0.7 10.5 E 3.3 4.5 NVERY_STEEP 3.9
2024-05-30 11:26 am 3.0 0.7 11.1ENE 3.0 4.8-VERY_STEEP 3.8
2024-05-30 10:56 am 2.6 0.7 10.5ENE 2.6 4.8 N N/A 3.9
2024-05-30 10:26 am 2.3 0.7 10.5ENE 2.3 7.7 E N/A 3.6
2024-05-30 09:56 am 2.3 0.7 11.1ENE 2.3 3.7 N N/A 3.5
2024-05-30 09:26 am 2.3 0.7 11.1ENE 2.3 9.1 E N/A 3.4
2024-05-30 08:56 am 2.3 0.3 10.5ENE 2.0 9.1 E N/A 3.3
2024-05-30 08:26 am 2.0 0.7 10.5ENE 2.0 9.1 E N/A 3.9
2024-05-30 07:56 am 1.6 0.7 10.5ENE 1.6 4.0 N N/A 4.3
2024-05-30 07:26 am 2.0 0.7 10.5ENE 2.0 9.1 E N/A 4.5
2024-05-30 06:56 am 2.0 0.3 10.5ENE 2.0 4.3 NNE N/A 4.6
2024-05-30 06:26 am 2.3 0.3 10.5ENE 2.0 4.2 N N/A 4.5
2024-05-30 05:56 am 2.3 0.3 11.1ENE 2.3 4.5 N N/A 4.3
2024-05-30 05:26 am 2.6 0.3 11.1 E 2.3 4.5 N N/A 4.3
2024-05-30 04:56 am 2.6 0.7 11.8 E 2.6 4.3-VERY_STEEP 4.2
2024-05-30 04:26 am 3.0 0.3 11.1 E 3.0 4.5 NVERY_STEEP 4.1
2024-05-30 03:56 am 3.0 0.7 11.1ENE 3.0 4.3 NNWVERY_STEEP 4.0
2024-05-30 03:26 am 3.0 0.7 11.1ENE 3.0 4.3 NVERY_STEEP 3.9
2024-05-30 02:56 am 2.6 0.7 11.8ENE 2.6 4.2 NVERY_STEEP 3.9
2024-05-30 02:26 am 3.0 0.7 11.8ENE 3.0 4.0 NVERY_STEEP 3.8
2024-05-30 01:56 am 2.6 0.7 10.5ENE 2.6 3.7 NVERY_STEEP 3.7
2024-05-30 01:26 am 2.6 0.3 10.5ESE 2.6 3.5 NVERY_STEEP 3.4
2024-05-30 12:56 am 2.6 0.7 10.5ENE 2.3 3.2 N N/A 3.3
2024-05-30 12:26 am 2.3 0.7 10.5ENE 2.3 9.9 E N/A 3.2
2024-05-29 11:56 pm 1.6 0.7 11.8ENE 1.6 7.7 ESE N/A 5.2
2024-05-29 11:26 pm 1.6 0.3 11.1 E 1.3 7.1 ESE N/A 4.9
2024-05-29 10:56 pm 1.6 0.7 11.8ENE 1.3 7.1 ESE N/A 4.8
2024-05-29 10:26 pm 1.6 0.7 12.5ESE 1.6 7.7 ESE N/A 4.6
2024-05-29 09:56 pm 1.6 0.7 11.8ENE 1.6 9.9 E N/A 4.3
2024-05-29 09:26 pm 1.6 0.7 11.1ENE 1.6 7.7 ESE N/A 4.6
2024-05-29 08:56 pm 1.6 0.3 11.8 E 1.3 7.7 ESE N/A 4.5
2024-05-29 08:26 pm 1.6 0.7 11.8ENE 1.6 7.1 ESE N/A 4.8
2024-05-29 07:56 pm 1.6 0.7 11.8ENE 1.6 7.7 ESE N/A 4.7
2024-05-29 07:26 pm 1.6 0.7 11.1 E 1.6 6.2 ESE N/A 4.7
2024-05-29 06:56 pm 1.6 0.3 10.5 E 1.3 7.1 ESE N/A 4.4
2024-05-29 06:26 pm 1.6 0.7 11.8 E 1.6 9.1 ESE N/A 4.5
2024-05-29 05:56 pm 1.6 0.7 10.5 E 1.3 6.7 ESE N/A 4.7
2024-05-29 05:26 pm 1.3 0.7 11.8ENE 1.3 7.7 ESE N/A 4.4
2024-05-29 04:56 pm 1.6 0.7 10.5 E 1.3 9.9 E N/A 4.7
2024-05-29 04:26 pm 1.6 0.7 11.8ENE 1.3 6.7 ESE N/A 4.9
2024-05-29 03:56 pm 1.6 0.7 12.5 E 1.3 7.1 ESE N/A 4.8
2024-05-29 03:26 pm 1.6 0.7 10.5 E 1.6 7.7 ESE N/A 4.8
2024-05-29 02:56 pm 1.6 0.7 11.8 E 1.3 7.7 E N/A 4.9

Plot of wave energy versus frequency (and period)